FW2122 Weather Reports


time (UTC)temp
F
wind
direction
speed
knots
gust
knots
rain 1hr
in
rain 24hr
in
rain mn
in
humidity
%
barometer
mb
20260503211534 84 39 3.5 12.2 0.00 0.00 0.00 27 1014.5
20260503210034 84 29 3.5 12.2 0.00 0.00 0.00 27 1014.7
20260503204530 84 58 3.5 17.4 0.00 0.00 0.00 26 1014.9
20260503201536 83 75 2.6 10.4 0.00 0.00 0.00 30 1015.4
20260503194534 82 13 3.5 8.7 0.00 0.00 0.00 34 1015.5
20260503191536 81 336 4.3 9.6 0.00 0.00 0.00 35 1015.6
20260503190105 80 339 5.2 13.9 0.00 0.00 0.00 35 1015.8
20260503184534 80 334 4.3 10.4 0.00 0.00 0.00 36 1016.0
20260503183034 79 330 5.2 12.2 0.00 0.00 0.00 36 1016.1
20260503180154 76 325 5.2 13.0 0.00 0.00 0.00 40 1016.4
20260503180144 74 330 4.3 9.6 0.00 0.00 0.00 43 1016.6
20260503173107 73 336 1.7 6.1 0.00 0.00 0.00 46 1016.8
20260503171530 72 344 0.9 6.1 0.00 0.00 0.00 49 1016.9
20260503140109 47 146 0.9 3.5 0.00 0.00 0.00 91 1017.5
20260503090110 50 169 0.0 2.6 0.00 0.00 0.00 84 1017.5
20260503081534 52 173 0.0 1.7 0.00 0.00 0.00 82 1017.4
20260503071536 53 154 0.0 1.7 0.00 0.00 0.00 79 1017.4
20260503054538 58 180 0.0 1.7 0.00 0.00 0.00 72 1017.1
20260503053036 59 119 0.0 1.7 0.00 0.00 0.00 69 1017.0
20260503050036 60 266 0.9 3.5 0.00 0.00 0.00 69 1017.0
20260503044535 61 156 0.0 1.7 0.00 0.00 0.00 67 1016.9
20260503043037 62 178 0.0 1.7 0.00 0.00 0.00 64 1016.8
20260503041536 64 197 0.0 0.9 0.00 0.00 0.00 61 1016.6
20260503040044 65 226 0.9 3.5 0.00 0.00 0.00 61 1016.4
20260503034537 64 214 2.6 4.3 0.00 0.00 0.00 63 1016.2
20260503033036 65 168 0.0 2.6 0.00 0.00 0.00 61 1015.9
20260503031535 66 137 0.0 2.6 0.00 0.00 0.00 61 1015.5
20260503030037 67 162 0.0 1.7 0.00 0.00 0.00 61 1015.2
20260503024535 68 225 0.0 0.0 0.00 0.00 0.00 60 1015.0
20260503023033 70 225 0.0 0.9 0.00 0.00 0.00 59 1014.9
20260503021534 71 225 0.0 0.0 0.00 0.00 0.00 56 1014.8
20260503020031 73 225 0.0 0.0 0.00 0.00 0.00 53 1014.7
20260503014532 75 225 0.0 0.9 0.00 0.00 0.00 50 1014.7
20260503013111 76 240 0.0 1.7 0.00 0.00 0.00 47 1014.7
20260503011546 77 202 0.0 1.7 0.00 0.00 0.00 41 1014.7
20260503004533 77 130 0.0 1.7 0.00 0.00 0.00 38 1014.6
20260503003112 78 94 0.0 3.5 0.00 0.00 0.00 36 1014.6
20260503001535 79 54 0.9 8.7 0.00 0.00 0.00 35 1014.7
20260503000031 79 34 0.0 3.5 0.00 0.00 0.00 34 1014.8
20260502234537 79 38 0.0 3.5 0.00 0.00 0.00 35 1015.0
20260502233034 79 57 2.6 7.8 0.00 0.00 0.00 35 1015.1
20260502231651 79 86 2.6 10.4 0.00 0.00 0.00 35 1015.3
20260502230044 79 35 3.5 10.4 0.00 0.00 0.00 35 1015.4
20260502223035 77 354 5.2 17.4 0.00 0.00 0.00 38 1015.7
20260502221535 78 336 5.2 16.5 0.00 0.00 0.00 39 1015.9
20260502220040 77 1 1.7 7.8 0.00 0.00 0.00 42 1015.9
20260502214537 76 338 3.5 12.2 0.00 0.00 0.00 44 1016.2